Location: Napier
(39.4830°S, 176.9170°E)
Time: 20:03:28
(UTC+12:00)

Resurs 01 Rocket - Pass Details

Date: 24 January 2019
Orbit: 634 x 645 km, 98.1° (Epoch: 21 April)

Event Time Altitude Azimuth Distance (km) Brightness Sun altitude
Rises 23:12:56 0° 182° (S) 2,977 6.0 -23.8°
Reaches altitude 10° 23:15:31 10° 195° (SSW) 2,057 5.2 -24.0°
Maximum altitude 23:19:02 23° 247° (WSW) 1,365 3.8 -24.4°
Drops below altitude 10° 23:22:32 10° 300° (WNW) 2,032 4.2 -24.8°
Enters shadow 23:23:18 - 305° (NW) 2,290 4.4 -24.8°
